Location: Houston
(29.7630°N, 95.3630°W)
Time: 12:00:20
(UTC-05:00)

ISS - All Passes

Search period start: 01 July 2016 00:00
Search period end: 11 July 2016 00:00
Orbit: 402 x 404 km, 51.6° (Epoch: 02 July)

Date Brightness Start Highest point End Pass type
(mag) Time Alt. Az. Time Alt. Az. Time Alt. Az.
01 Jul - 06:29:25 10° SSE 06:31:04 13° SE 06:32:44 10° E daylight
01 Jul - 08:04:15 10° WSW 08:07:14 33° NW 08:10:15 10° NNE daylight
01 Jul - 14:37:22 10° N 14:39:11 14° NE 14:40:58 10° ENE daylight
01 Jul - 16:12:40 10° WNW 16:15:46 42° SW 16:18:51 10° SSE daylight
02 Jul - 07:11:13 10° SW 07:14:28 81° NW 07:17:43 10° NE daylight
02 Jul - 15:19:47 10° NW 15:23:03 76° NE 15:26:17 10° SE daylight
03 Jul - 06:18:42 10° SSW 06:21:45 39° SE 06:24:49 10° ENE daylight
03 Jul - 07:56:25 10° WNW 07:58:18 14° NW 08:00:12 10° N daylight
03 Jul - 14:27:16 10° NNW 14:30:14 32° NE 14:33:12 10° ESE daylight
03 Jul - 16:04:35 10° W 16:06:26 14° SW 16:08:16 10° SSW daylight
04 Jul - 05:26:56 10° S 05:29:07 17° SE 05:31:18 10° E visible
04 Jul - 07:02:32 10° WSW 07:05:22 27° NW 07:08:12 10° NNE daylight
04 Jul - 13:35:08 10° N 13:37:19 16° NE 13:39:30 10° E daylight
04 Jul - 15:10:51 10° WNW 15:13:49 32° SW 15:16:45 10° SSE daylight
05 Jul - 06:09:18 10° SW 06:12:31 61° NW 06:15:45 10° NE daylight
05 Jul - 14:17:49 10° NW 14:21:05 83° SW 14:24:20 10° SE daylight
06 Jul - 05:16:35 10° SSW 05:19:45 51° SE 05:22:55 10° NE visible
06 Jul - 06:54:59 10° WNW 06:56:24 12° NW 06:57:47 10° N daylight
06 Jul - 13:25:10 10° NNW 13:28:16 40° NE 13:31:21 10° ESE daylight
06 Jul - 15:03:20 10° WSW 15:04:23 11° SW 15:05:24 10° SW daylight
07 Jul - 04:24:30 10° S 04:27:02 21° SE 04:29:36 10° ENE visible
07 Jul - 06:00:45 10° W 06:03:22 22° NW 06:06:01 10° NNE visible
07 Jul - 12:32:52 10° N 12:35:20 20° NE 12:37:48 10° E daylight
07 Jul - 14:08:59 10° WNW 14:11:43 25° SW 14:14:28 10° S daylight
08 Jul - 05:07:19 10° WSW 05:10:27 47° NW 05:13:36 10° NNE visible
08 Jul - 11:41:22 10° NNE 11:42:17 11° NE 11:43:12 10° NE daylight
08 Jul - 13:15:46 10° NW 13:19:00 62° SW 13:22:12 10° SSE daylight
09 Jul - 04:14:24 10° SW 04:17:37 68° SE 04:20:52 10° NE visible
09 Jul - 05:53:50 10° NW 05:54:22 10° NNW 05:54:53 10° NNW visible
09 Jul - 12:22:58 10° NNW 12:26:10 51° NE 12:29:20 10° ESE daylight
10 Jul - 03:22:04 10° S 03:24:51 27° SE 03:27:40 10° ENE visible
10 Jul - 04:58:53 10° W 05:01:16 19° NW 05:03:40 10° N visible
10 Jul - 11:30:31 10° NNW 11:33:13 24° NE 11:35:55 10° E daylight
10 Jul - 13:07:04 10° WNW 13:09:31 20° SW 13:11:59 10° S daylight
